TimeEDT,TemperatureF,Dew PointF,Humidity,Sea Level PressureIn,VisibilityMPH,Wind Direction,Wind SpeedMPH,Gust SpeedMPH,PrecipitationIn,Events,Conditions,WindDirDegrees,DateUTC
12:08 AM,69.8,66.2,88,30.22,10.0,Calm,Calm,-,N/A,,Mostly Cloudy,0,2013-09-10 04:08:00
12:54 AM,70.0,66.0,87,30.19,9.0,Calm,Calm,-,N/A,,Mostly Cloudy,0,2013-09-10 04:54:00
1:54 AM,68.0,64.9,90,30.19,8.0,Calm,Calm,-,N/A,,Scattered Clouds,0,2013-09-10 05:54:00
2:54 AM,70.0,66.0,87,30.19,10.0,Calm,Calm,-,N/A,,Scattered Clouds,0,2013-09-10 06:54:00
3:54 AM,66.9,64.9,93,30.20,7.0,Calm,Calm,-,N/A,,Mostly Cloudy,0,2013-09-10 07:54:00
4:54 AM,66.9,64.0,90,30.20,7.0,Calm,Calm,-,N/A,,Clear,0,2013-09-10 08:54:00
5:54 AM,66.0,64.0,93,30.20,6.0,Calm,Calm,-,N/A,,Clear,0,2013-09-10 09:54:00
6:54 AM,64.9,64.0,97,30.21,5.0,Calm,Calm,-,N/A,,Clear,0,2013-09-10 10:54:00
7:54 AM,66.9,64.9,93,30.23,4.0,Calm,Calm,-,N/A,,Clear,0,2013-09-10 11:54:00
8:54 AM,71.1,66.0,84,30.23,7.0,Calm,Calm,-,N/A,,Clear,0,2013-09-10 12:54:00
9:54 AM,75.0,66.9,76,30.25,9.0,WSW,6.9,-,N/A,,Clear,250,2013-09-10 13:54:00
10:54 AM,79.0,66.0,64,30.23,10.0,West,9.2,-,N/A,,Partly Cloudy,260,2013-09-10 14:54:00
11:54 AM,82.9,66.0,56,30.23,10.0,SW,8.1,-,N/A,,Clear,230,2013-09-10 15:54:00
12:54 PM,86.0,66.9,53,30.21,10.0,SSW,5.8,-,N/A,,Clear,210,2013-09-10 16:54:00
1:54 PM,88.0,66.9,49,30.20,10.0,Variable,3.5,-,N/A,,Scattered Clouds,0,2013-09-10 17:54:00
2:54 PM,81.0,66.9,62,30.19,10.0,SW,9.2,-,0.00,,Scattered Clouds,220,2013-09-10 18:54:00
3:54 PM,81.0,69.1,67,30.18,10.0,SW,5.8,-,N/A,,Mostly Cloudy,220,2013-09-10 19:54:00
4:54 PM,84.0,71.1,65,30.17,10.0,South,6.9,-,N/A,,Scattered Clouds,180,2013-09-10 20:54:00
5:54 PM,82.9,69.1,63,30.16,10.0,SSW,4.6,-,N/A,,Clear,200,2013-09-10 21:54:00
6:54 PM,82.0,70.0,67,30.16,10.0,South,6.9,-,N/A,,Clear,190,2013-09-10 22:54:00
7:54 PM,80.1,68.0,67,30.17,10.0,SW,4.6,-,N/A,,Clear,220,2013-09-10 23:54:00
8:54 PM,75.9,69.1,79,30.19,10.0,West,4.6,-,N/A,,Clear,280,2013-09-11 00:54:00
9:54 PM,75.0,69.1,82,30.22,10.0,Calm,Calm,-,N/A,,Clear,0,2013-09-11 01:54:00
10:54 PM,73.0,69.1,87,30.23,10.0,Calm,Calm,-,N/A,,Clear,0,2013-09-11 02:54:00
11:54 PM,73.0,68.0,84,30.21,10.0,WNW,3.5,-,N/A,,Clear,300,2013-09-11 03:54:00